User: anonymous   Login
Location: Arbon
(43.0005°N, 0.7472°E)
Time: 11:06:05
(UTC+00:00)
Language:

NOSS 2-3 (C) - Orbit

View from above orbital plane
View from above orbital plane
View from above satellite
View from above satellite

Ground track
Ground track

The orbit data is extracted from the following two-line orbital elements,

1 23908U 96029C   20288.80195460 0.00000080  00000-0  30810-4 0    08
2 23908  63.3625 165.0261 0713397  22.4714 337.5286 13.40928702    00
Epoch (UTC): 14 October 2020 19:14:48
Eccentricity: 0.0713397
inclination: 63.3625°
perigee height: 572 km
apogee height: 1640 km
right ascension of ascending node: 165.0261°
argument of perigee: 22.4714°
revolutions per day: 13.40928702
mean anomaly at epoch: 337.5286°
orbit number at epoch: 0

The dashed part of the orbit path shows where the satellite is in the earth's shadow,  

DLR